Showing default

OPS 8464 (TRANSIT 5B-7), 1514

Orbit data source: Space-Track

OPS 8464 (TRANSIT 5B-7), 1514 is a payload satellite owned by USN BuWeps (US) in LEO that was launched on Fri, 13 Aug 1965 UTC via a THOR ABLESTAR launch vehicle from the Air Force Western Test Range (AFWTR). Payloads include a variety of satellites, spacecraft, and rockets equipped with specific instruments for various scientific and technological missions. These include communications satellites like Starlink; space stations such as the ISS; scientific satellites like the Hubble; Earth observation satellites from companies like Planet Labs, Umbra, and HawkEye 360; GPS; miniature CubeSats for education and research; and military/defense satellites.

Loading next visibility...
OPS 8464 (TRANSIT 5B-7) details
Identifier
1514, 1965-065F
Orbit
LEO
Last TLE update8 hours ago
Origin
Flag of USUSN BuWeps (US)
ManufacturerNAFI
MissionDefense Navigation
Bus & MotorTRANSIT 5, Unknown motor
Mass~54 kg wet, ~54 kg dry
Launch date (UTC)
1965-08-13 (59 years ago)
Launch vehicle
THOR ABLESTAR
Launch site
Air Force Western Test Range (AFWTR)
Object type
Payload
Rocket body
Debris
Shape & HBROct Cyl + 4 Pan + 1 Rod, Unknown HBR
Radar Cross Section7.565 m², Large (>1 m²)

Expand to show TLE details & history

TLE from 8 hours ago
0 OPS 8464 (TRANSIT 5B-7)
1 01514U 65065F   25015.60398318  .00000120  00000-0  21672-3 0  9998
2 01514  89.9582 228.9224 0070293 177.5608 236.8916 13.35256819892195
Epoch: 2025-01-15T14:29Z
Definitive object data (Epoch: 2025-01-15T14:29:44.146Z)
Latitude53.87384°
Longitude-103.74851°
Altitude1,164.995 km
Speed7.262 km/s
True Right ascension15h 15m 55s
True Declination53° 43' 08"
Sunlit
Object was in daylight at TLE epoch
Visualization TLE readout
Latitude40.09415°
Longitude76.1582°
Altitude1,090.306 km
Speed7.331 km/s
Apparent Right ascension06h 35m 27s
Apparent Declination6° 57' 58"
Sunlit
Object is in daylight
Visualization observer readout
Local Sidereal Time22:49:06
Azimuth66.927° ENE
Elevation-15.245°
Doppler factor1
Orbital elements
Apogee altitude1,176.807 km
Perigee altitude1,071.336 km
Semi-major axis7,502.208 km
Eccentricity0.0070293
Inclination89.9582°
RAAN228.9224°
Arg. of periapsis177.5608°
True anomaly236.22012°
Mean anomaly236.8916°
Eccentric anomaly236.55554°
Mean motion3.3401 °/min
BSTAR0.00021672
Orbital period107.78 mins
Loading maneuver chart data...
Loading historical data...
Loading historical data...
Loading historical data...
Loading historical data...
Loading historical data...
Loading historical data...
Loading historical data...

OPS 8464 (TRANSIT 5B-7) Visibility forecast

Observer location: undefined°, undefined

Span
Click to sort rows by Start time (UTC) header in descending order
Start Az.
Max El. time (UTC)
Max El. Az.
Max El.
End time (UTC)
End Az.
11 mins2025-01-16 01:37:08.882Z19.374° NNE2025-01-16 01:43:08.882Z89.17° E31.739°2025-01-16 01:48:08.882Z148.023° SSE
10 mins2025-01-16 03:26:08.882Z335.57° NNW2025-01-16 03:30:08.882Z287.845° WNW28.836°2025-01-16 03:36:08.882Z221.873° SW
12 mins2025-01-16 13:43:08.882Z145.761° SSE2025-01-16 13:48:08.882Z91.147° ESE35.169°2025-01-16 13:55:08.882Z10.697° NNE
10 mins2025-01-16 15:32:08.882Z227.832° WSW2025-01-16 15:36:08.882Z273.566° WNW27.306°2025-01-16 15:42:08.882Z336.038° NNW
|